Year,Month,Day,Hour,Minute,Value (Times are PST for temperature in C)
2013,10,17,00,00,7.70
2013,10,17,00,01,7.70
2013,10,17,00,02,7.70
2013,10,17,00,03,7.60
2013,10,17,00,04,7.60
2013,10,17,00,05,7.50
2013,10,17,00,06,7.50
2013,10,17,00,07,7.50
2013,10,17,00,08,7.50
2013,10,17,00,09,7.50
2013,10,17,00,10,7.50
2013,10,17,00,11,7.50
2013,10,17,00,12,7.50
2013,10,17,00,13,7.50
2013,10,17,00,14,7.50
2013,10,17,00,15,7.50
2013,10,17,00,16,7.50
2013,10,17,00,17,7.60
2013,10,17,00,18,7.70
2013,10,17,00,19,7.80
2013,10,17,00,20,7.70
2013,10,17,00,21,7.70
2013,10,17,00,22,7.60
2013,10,17,00,23,7.50
2013,10,17,00,24,7.40
2013,10,17,00,25,7.30
2013,10,17,00,26,7.30
2013,10,17,00,27,7.20
2013,10,17,00,28,7.20
2013,10,17,00,29,7.20
2013,10,17,00,30,7.20
2013,10,17,00,31,7.20
2013,10,17,00,32,7.30
2013,10,17,00,33,7.40
2013,10,17,00,34,7.40
2013,10,17,00,35,7.40
2013,10,17,00,36,7.50
2013,10,17,00,37,7.50
2013,10,17,00,38,7.60
2013,10,17,00,39,7.60
2013,10,17,00,40,7.60
2013,10,17,00,41,7.70
2013,10,17,00,42,7.80
2013,10,17,00,43,7.80
2013,10,17,00,44,7.80
2013,10,17,00,45,7.80
2013,10,17,00,46,7.90
2013,10,17,00,47,7.90
2013,10,17,00,48,7.90
2013,10,17,00,49,7.80
2013,10,17,00,50,7.80
2013,10,17,00,51,7.70
2013,10,17,00,52,7.70
2013,10,17,00,53,7.70
2013,10,17,00,54,7.60
2013,10,17,00,55,7.60
2013,10,17,00,56,7.50
2013,10,17,00,57,7.50
2013,10,17,00,58,7.50
2013,10,17,00,59,7.50
2013,10,17,01,00,7.40
2013,10,17,01,01,7.40
2013,10,17,01,02,7.40
2013,10,17,01,03,7.40
2013,10,17,01,04,7.40
2013,10,17,01,05,7.40
2013,10,17,01,06,7.40
2013,10,17,01,07,7.50
2013,10,17,01,08,7.50
2013,10,17,01,09,7.50
2013,10,17,01,10,7.50
2013,10,17,01,11,7.50
2013,10,17,01,12,7.50
2013,10,17,01,13,7.50
2013,10,17,01,14,7.50
2013,10,17,01,15,7.40
2013,10,17,01,16,7.40
2013,10,17,01,17,7.40
2013,10,17,01,18,7.40
2013,10,17,01,19,7.30
2013,10,17,01,20,7.30
2013,10,17,01,21,7.30
2013,10,17,01,22,7.40
2013,10,17,01,23,7.40
2013,10,17,01,24,7.40
2013,10,17,01,25,7.40
2013,10,17,01,26,7.40
2013,10,17,01,27,7.40
2013,10,17,01,28,7.40
2013,10,17,01,29,7.40
2013,10,17,01,30,7.40
2013,10,17,01,31,7.40
2013,10,17,01,32,7.50
2013,10,17,01,33,7.50
2013,10,17,01,34,7.60
2013,10,17,01,35,7.60
2013,10,17,01,36,7.60
2013,10,17,01,37,7.60
2013,10,17,01,38,7.60
2013,10,17,01,39,7.60
2013,10,17,01,40,7.60
2013,10,17,01,41,7.50
2013,10,17,01,42,7.50
2013,10,17,01,43,7.40
2013,10,17,01,44,7.40
2013,10,17,01,45,7.30
2013,10,17,01,46,7.30
2013,10,17,01,47,7.30
2013,10,17,01,48,7.30
2013,10,17,01,49,7.30
2013,10,17,01,50,7.30
2013,10,17,01,51,7.30
2013,10,17,01,52,7.30
2013,10,17,01,53,7.30
2013,10,17,01,54,7.40
2013,10,17,01,55,7.50
2013,10,17,01,56,7.50
2013,10,17,01,57,7.60
2013,10,17,01,58,7.50
2013,10,17,01,59,7.50
2013,10,17,02,00,7.50
2013,10,17,02,01,7.50
2013,10,17,02,02,7.40
2013,10,17,02,03,7.40
2013,10,17,02,04,7.40
2013,10,17,02,05,7.40
2013,10,17,02,06,7.30
2013,10,17,02,07,7.30
2013,10,17,02,08,7.30
2013,10,17,02,09,7.30
2013,10,17,02,10,7.30
2013,10,17,02,11,7.30
2013,10,17,02,12,7.40
2013,10,17,02,13,7.40
2013,10,17,02,14,7.40
2013,10,17,02,15,7.40
2013,10,17,02,16,7.40
2013,10,17,02,17,7.40
2013,10,17,02,18,7.40
2013,10,17,02,19,7.40
2013,10,17,02,20,7.30
2013,10,17,02,21,7.30
2013,10,17,02,22,7.30
2013,10,17,02,23,7.30
2013,10,17,02,24,7.30
2013,10,17,02,25,7.30
2013,10,17,02,26,7.30
2013,10,17,02,27,7.30
2013,10,17,02,28,7.30
2013,10,17,02,29,7.30
2013,10,17,02,30,7.30
2013,10,17,02,31,7.30
2013,10,17,02,32,7.20
2013,10,17,02,33,7.20
2013,10,17,02,34,7.20
2013,10,17,02,35,7.20
2013,10,17,02,36,7.20
2013,10,17,02,37,7.20
2013,10,17,02,38,7.20
2013,10,17,02,39,7.10
2013,10,17,02,40,7.10
2013,10,17,02,41,7.10
2013,10,17,02,42,7.10
2013,10,17,02,43,7.10
2013,10,17,02,44,7.10
2013,10,17,02,45,7.00
2013,10,17,02,46,7.00
2013,10,17,02,47,7.00
2013,10,17,02,48,7.00
2013,10,17,02,49,7.00
2013,10,17,02,50,7.00
2013,10,17,02,51,6.90
2013,10,17,02,52,6.90
2013,10,17,02,53,7.00
2013,10,17,02,54,6.90
2013,10,17,02,55,6.90
2013,10,17,02,56,6.90
2013,10,17,02,57,6.90
2013,10,17,02,58,6.80
2013,10,17,02,59,6.90
2013,10,17,03,00,6.90
2013,10,17,03,01,6.90
2013,10,17,03,02,6.90
2013,10,17,03,03,6.90
2013,10,17,03,04,6.80
2013,10,17,03,05,6.80
2013,10,17,03,06,6.80
2013,10,17,03,07,6.80
2013,10,17,03,08,6.80
2013,10,17,03,09,6.80
2013,10,17,03,10,6.80
2013,10,17,03,11,6.80
2013,10,17,03,12,6.90
2013,10,17,03,13,6.90
2013,10,17,03,14,6.90
2013,10,17,03,15,7.00
2013,10,17,03,16,7.00
2013,10,17,03,17,7.00
2013,10,17,03,18,7.00
2013,10,17,03,19,7.00
2013,10,17,03,20,7.00
2013,10,17,03,21,7.00
2013,10,17,03,22,6.90
2013,10,17,03,23,6.90
2013,10,17,03,24,6.90
2013,10,17,03,25,6.90
2013,10,17,03,26,6.80
2013,10,17,03,27,6.80
2013,10,17,03,28,6.90
2013,10,17,03,29,7.00
2013,10,17,03,30,7.10
2013,10,17,03,31,7.10
2013,10,17,03,32,7.10
2013,10,17,03,33,7.00
2013,10,17,03,34,7.00
2013,10,17,03,35,6.90
2013,10,17,03,36,6.80
2013,10,17,03,37,6.80
2013,10,17,03,38,6.70
2013,10,17,03,39,6.70
2013,10,17,03,40,6.70
2013,10,17,03,41,6.70
2013,10,17,03,42,6.70
2013,10,17,03,43,6.70
2013,10,17,03,44,6.80
2013,10,17,03,45,6.80
2013,10,17,03,46,6.80
2013,10,17,03,47,6.90
2013,10,17,03,48,7.00
2013,10,17,03,49,7.10
2013,10,17,03,50,7.10
2013,10,17,03,51,7.10
2013,10,17,03,52,7.20
2013,10,17,03,53,7.20
2013,10,17,03,54,7.30
2013,10,17,03,55,7.30
2013,10,17,03,56,7.30
2013,10,17,03,57,7.30
2013,10,17,03,58,7.30
2013,10,17,03,59,7.40
2013,10,17,04,00,7.40
2013,10,17,04,01,7.40
2013,10,17,04,02,7.40
2013,10,17,04,03,7.40
2013,10,17,04,04,7.30
2013,10,17,04,05,7.30
2013,10,17,04,06,7.20
2013,10,17,04,07,7.10
2013,10,17,04,08,7.00
2013,10,17,04,09,6.90
2013,10,17,04,10,6.80
2013,10,17,04,11,6.70
2013,10,17,04,12,6.70
2013,10,17,04,13,6.60
2013,10,17,04,14,6.50
2013,10,17,04,15,6.50
2013,10,17,04,16,6.40
2013,10,17,04,17,6.40
2013,10,17,04,18,6.40
2013,10,17,04,19,6.40
2013,10,17,04,20,6.40
2013,10,17,04,21,6.40
2013,10,17,04,22,6.40
2013,10,17,04,23,6.50
2013,10,17,04,24,6.60
2013,10,17,04,25,6.60
2013,10,17,04,26,6.70
2013,10,17,04,27,6.70
2013,10,17,04,28,6.80
2013,10,17,04,29,6.90
2013,10,17,04,30,6.90
2013,10,17,04,31,7.00
2013,10,17,04,32,7.10
2013,10,17,04,33,7.10
2013,10,17,04,34,7.10
2013,10,17,04,35,7.20
2013,10,17,04,36,7.30
2013,10,17,04,37,7.40
2013,10,17,04,38,7.40
2013,10,17,04,39,7.50
2013,10,17,04,40,7.50
2013,10,17,04,41,7.40
2013,10,17,04,42,7.40
2013,10,17,04,43,7.40
2013,10,17,04,44,7.30
2013,10,17,04,45,7.30
2013,10,17,04,46,7.30
2013,10,17,04,47,7.20
2013,10,17,04,48,7.20
2013,10,17,04,49,7.10
2013,10,17,04,50,7.10
2013,10,17,04,51,7.20
2013,10,17,04,52,7.20
2013,10,17,04,53,7.20
2013,10,17,04,54,7.20
2013,10,17,04,55,7.20
2013,10,17,04,56,7.10
2013,10,17,04,57,7.10
2013,10,17,04,58,7.00
2013,10,17,04,59,6.90
2013,10,17,05,00,6.90
2013,10,17,05,01,6.90
2013,10,17,05,02,6.80
2013,10,17,05,03,6.80
2013,10,17,05,04,6.70
2013,10,17,05,05,6.70
2013,10,17,05,06,6.70
2013,10,17,05,07,6.70
2013,10,17,05,08,6.70
2013,10,17,05,09,6.70
2013,10,17,05,10,6.70
2013,10,17,05,11,6.70
2013,10,17,05,12,6.70
2013,10,17,05,13,6.70
2013,10,17,05,14,6.70
2013,10,17,05,15,6.60
2013,10,17,05,16,6.60
2013,10,17,05,17,6.60
2013,10,17,05,18,6.60
2013,10,17,05,19,6.60
2013,10,17,05,20,6.60
2013,10,17,05,21,6.60
2013,10,17,05,22,6.60
2013,10,17,05,23,6.60
2013,10,17,05,24,6.60
2013,10,17,05,25,6.60
2013,10,17,05,26,6.60
2013,10,17,05,27,6.50
2013,10,17,05,28,6.40
2013,10,17,05,29,6.40
2013,10,17,05,30,6.30
2013,10,17,05,31,6.30
2013,10,17,05,32,6.30
2013,10,17,05,33,6.30
2013,10,17,05,34,6.30
2013,10,17,05,35,6.30
2013,10,17,05,36,6.20
2013,10,17,05,37,6.20
2013,10,17,05,38,6.20
2013,10,17,05,39,6.20
2013,10,17,05,40,6.30
2013,10,17,05,41,6.30
2013,10,17,05,42,6.40
2013,10,17,05,43,6.40
2013,10,17,05,44,6.50
2013,10,17,05,45,6.50
2013,10,17,05,46,6.60
2013,10,17,05,47,6.60
2013,10,17,05,48,6.60
2013,10,17,05,49,6.60
2013,10,17,05,50,6.70
2013,10,17,05,51,6.70
2013,10,17,05,52,6.70
2013,10,17,05,53,6.70
2013,10,17,05,54,6.70
2013,10,17,05,55,6.70
2013,10,17,05,56,6.70
2013,10,17,05,57,6.70
2013,10,17,05,58,6.70
2013,10,17,05,59,6.80
2013,10,17,06,00,6.70
2013,10,17,06,01,6.60
2013,10,17,06,02,6.50
2013,10,17,06,03,6.50
2013,10,17,06,04,6.40
2013,10,17,06,05,6.30
2013,10,17,06,06,6.30
2013,10,17,06,07,6.30
2013,10,17,06,08,6.30
2013,10,17,06,09,6.20
2013,10,17,06,10,6.20
2013,10,17,06,11,6.20
2013,10,17,06,12,6.20
2013,10,17,06,13,6.20
2013,10,17,06,14,6.20
2013,10,17,06,15,6.20
2013,10,17,06,16,6.20
2013,10,17,06,17,6.10
2013,10,17,06,18,6.10
2013,10,17,06,19,6.10
2013,10,17,06,20,6.10
2013,10,17,06,21,6.00
2013,10,17,06,22,6.00
2013,10,17,06,23,6.00
2013,10,17,06,24,6.00
2013,10,17,06,25,6.00
2013,10,17,06,26,6.00
2013,10,17,06,27,6.00
2013,10,17,06,28,6.10
2013,10,17,06,29,6.10
2013,10,17,06,30,6.20
2013,10,17,06,31,6.20
2013,10,17,06,32,6.20
2013,10,17,06,33,6.20
2013,10,17,06,34,6.20
2013,10,17,06,35,6.20
2013,10,17,06,36,6.20
2013,10,17,06,37,6.10
2013,10,17,06,38,6.10
2013,10,17,06,39,6.00
2013,10,17,06,40,6.00
2013,10,17,06,41,6.00
2013,10,17,06,42,6.00
2013,10,17,06,43,6.00
2013,10,17,06,44,6.00
2013,10,17,06,45,6.10
2013,10,17,06,46,6.10
2013,10,17,06,47,6.10
2013,10,17,06,48,6.10
2013,10,17,06,49,6.10
2013,10,17,06,50,6.00
2013,10,17,06,51,6.00
2013,10,17,06,52,6.00
2013,10,17,06,53,6.00
2013,10,17,06,54,5.90
2013,10,17,06,55,5.90
2013,10,17,06,56,5.90
2013,10,17,06,57,5.90
2013,10,17,06,58,5.90
2013,10,17,06,59,5.90
2013,10,17,07,00,5.90
2013,10,17,07,01,5.90
2013,10,17,07,02,5.90
2013,10,17,07,03,5.90
2013,10,17,07,04,5.90
2013,10,17,07,05,5.90
2013,10,17,07,06,5.90
2013,10,17,07,07,5.80
2013,10,17,07,08,5.80
2013,10,17,07,09,5.80
2013,10,17,07,10,5.80
2013,10,17,07,11,5.90
2013,10,17,07,12,5.90
2013,10,17,07,13,5.90
2013,10,17,07,14,5.90
2013,10,17,07,15,5.90
2013,10,17,07,16,5.80
2013,10,17,07,17,5.80
2013,10,17,07,18,5.80
2013,10,17,07,19,5.80
2013,10,17,07,20,5.80
2013,10,17,07,21,5.70
2013,10,17,07,22,5.70
2013,10,17,07,23,5.70
2013,10,17,07,24,5.70
2013,10,17,07,25,5.70
2013,10,17,07,26,5.70
2013,10,17,07,27,5.70
2013,10,17,07,28,5.70
2013,10,17,07,29,5.60
2013,10,17,07,30,5.60
2013,10,17,07,31,5.60
2013,10,17,07,32,5.60
2013,10,17,07,33,5.70
2013,10,17,07,34,5.70
2013,10,17,07,35,5.70
2013,10,17,07,36,5.80
2013,10,17,07,37,5.80
2013,10,17,07,38,5.80
2013,10,17,07,39,5.80
2013,10,17,07,40,5.80
2013,10,17,07,41,5.90
2013,10,17,07,42,6.00
2013,10,17,07,43,6.00
2013,10,17,07,44,6.00
2013,10,17,07,45,6.00
2013,10,17,07,46,6.00
2013,10,17,07,47,6.00
2013,10,17,07,48,6.00
2013,10,17,07,49,6.00
2013,10,17,07,50,5.90
2013,10,17,07,51,5.90
2013,10,17,07,52,5.80
2013,10,17,07,53,5.80
2013,10,17,07,54,5.80
2013,10,17,07,55,5.70
2013,10,17,07,56,5.70
2013,10,17,07,57,5.70
2013,10,17,07,58,5.70
2013,10,17,07,59,5.70
2013,10,17,08,00,5.70
2013,10,17,08,01,5.70
2013,10,17,08,02,5.80
2013,10,17,08,03,5.80
2013,10,17,08,04,5.80
2013,10,17,08,05,5.90
2013,10,17,08,06,5.90
2013,10,17,08,07,5.90
2013,10,17,08,08,5.90
2013,10,17,08,09,6.00
2013,10,17,08,10,6.00
2013,10,17,08,11,6.00
2013,10,17,08,12,6.00
2013,10,17,08,13,5.90
2013,10,17,08,14,5.90
2013,10,17,08,15,5.90
2013,10,17,08,16,5.90
2013,10,17,08,17,5.90
2013,10,17,08,18,5.90
2013,10,17,08,19,5.90
2013,10,17,08,20,5.90
2013,10,17,08,21,5.80
2013,10,17,08,22,5.80
2013,10,17,08,23,5.80
2013,10,17,08,24,5.80
2013,10,17,08,25,5.70
2013,10,17,08,26,5.70
2013,10,17,08,27,5.60
2013,10,17,08,28,5.60
2013,10,17,08,29,5.70
2013,10,17,08,30,5.70
2013,10,17,08,31,5.70
2013,10,17,08,32,5.70
2013,10,17,08,33,5.80
2013,10,17,08,34,5.80
2013,10,17,08,35,5.80
2013,10,17,08,36,5.80
2013,10,17,08,37,5.70
2013,10,17,08,38,5.70
2013,10,17,08,39,5.70
2013,10,17,08,40,5.70
2013,10,17,08,41,5.70
2013,10,17,08,42,5.80
2013,10,17,08,43,5.80
2013,10,17,08,44,5.80
2013,10,17,08,45,5.90
2013,10,17,08,46,6.00
2013,10,17,08,47,6.00
2013,10,17,08,48,6.10
2013,10,17,08,49,6.10
2013,10,17,08,50,6.20
2013,10,17,08,51,6.30
2013,10,17,08,52,6.30
2013,10,17,08,53,6.40
2013,10,17,08,54,6.40
2013,10,17,08,55,6.40
2013,10,17,08,56,6.40
2013,10,17,08,57,6.40
2013,10,17,08,58,6.50
2013,10,17,08,59,6.50
2013,10,17,09,00,6.60
2013,10,17,09,01,6.60
2013,10,17,09,02,6.60
2013,10,17,09,03,6.60
2013,10,17,09,04,6.70
2013,10,17,09,05,6.70
2013,10,17,09,06,6.70
2013,10,17,09,07,6.70
2013,10,17,09,08,6.80
2013,10,17,09,09,6.80
2013,10,17,09,10,6.80
2013,10,17,09,11,6.80
2013,10,17,09,12,6.80
2013,10,17,09,13,6.90
2013,10,17,09,14,6.90
2013,10,17,09,15,6.90
2013,10,17,09,16,6.90
2013,10,17,09,17,6.90
2013,10,17,09,18,6.90
2013,10,17,09,19,7.00
2013,10,17,09,20,7.00
2013,10,17,09,21,7.00
2013,10,17,09,22,7.10
2013,10,17,09,23,7.20
2013,10,17,09,24,7.20
2013,10,17,09,25,7.20
2013,10,17,09,26,7.30
2013,10,17,09,27,7.30
2013,10,17,09,28,7.30
2013,10,17,09,29,7.40
2013,10,17,09,30,7.40
2013,10,17,09,31,7.40
2013,10,17,09,32,7.40
2013,10,17,09,33,7.40
2013,10,17,09,34,7.50
2013,10,17,09,35,7.50
2013,10,17,09,36,7.60
2013,10,17,09,37,7.70
2013,10,17,09,38,7.70
2013,10,17,09,39,7.80
2013,10,17,09,40,7.90
2013,10,17,09,41,8.00
2013,10,17,09,42,8.10
2013,10,17,09,43,8.20
2013,10,17,09,44,8.30
2013,10,17,09,45,8.40
2013,10,17,09,46,8.50
2013,10,17,09,47,8.50
2013,10,17,09,48,8.60
2013,10,17,09,49,8.60
2013,10,17,09,50,8.70
2013,10,17,09,51,8.70
2013,10,17,09,52,8.80
2013,10,17,09,53,8.80
2013,10,17,09,54,8.90
2013,10,17,09,55,9.00
2013,10,17,09,56,9.00
2013,10,17,09,57,9.00
2013,10,17,09,58,9.00
2013,10,17,09,59,9.00
2013,10,17,10,00,8.90
2013,10,17,10,01,9.00
2013,10,17,10,02,9.00
2013,10,17,10,03,9.00
2013,10,17,10,04,9.00
2013,10,17,10,05,9.00
2013,10,17,10,06,9.10
2013,10,17,10,07,9.10
2013,10,17,10,08,9.10
2013,10,17,10,09,9.10
2013,10,17,10,10,9.10
2013,10,17,10,11,9.20
2013,10,17,10,12,9.20
2013,10,17,10,13,9.20
2013,10,17,10,14,9.20
2013,10,17,10,15,9.30
2013,10,17,10,16,9.30
2013,10,17,10,17,9.30
2013,10,17,10,18,9.30
2013,10,17,10,19,9.40
2013,10,17,10,20,9.40
2013,10,17,10,21,9.40
2013,10,17,10,22,9.50
2013,10,17,10,23,9.50
2013,10,17,10,24,9.50
2013,10,17,10,25,9.50
2013,10,17,10,26,9.50
2013,10,17,10,27,9.50
2013,10,17,10,28,9.50
2013,10,17,10,29,9.50
2013,10,17,10,30,9.50
2013,10,17,10,31,9.60
2013,10,17,10,32,9.60
2013,10,17,10,33,9.60
2013,10,17,10,34,9.60
2013,10,17,10,35,9.60
2013,10,17,10,36,9.70
2013,10,17,10,37,9.70
2013,10,17,10,38,9.70
2013,10,17,10,39,9.70
2013,10,17,10,40,9.70
2013,10,17,10,41,9.70
2013,10,17,10,42,9.80
2013,10,17,10,43,9.80
2013,10,17,10,44,9.80
2013,10,17,10,45,9.80
2013,10,17,10,46,9.80
2013,10,17,10,47,9.80
2013,10,17,10,48,9.90
2013,10,17,10,49,9.90
2013,10,17,10,50,10.00
2013,10,17,10,51,10.00
2013,10,17,10,52,10.10
2013,10,17,10,53,10.10
2013,10,17,10,54,10.10
2013,10,17,10,55,10.20
2013,10,17,10,56,10.20
2013,10,17,10,57,10.20
2013,10,17,10,58,10.30
2013,10,17,10,59,10.20
2013,10,17,11,00,10.20
2013,10,17,11,01,10.20
2013,10,17,11,02,10.30
2013,10,17,11,03,10.20
2013,10,17,11,04,10.20
2013,10,17,11,05,10.20
2013,10,17,11,06,10.30
2013,10,17,11,07,10.30
2013,10,17,11,08,10.30
2013,10,17,11,09,10.30
2013,10,17,11,10,10.30
2013,10,17,11,11,10.40
2013,10,17,11,12,10.40
2013,10,17,11,13,10.40
2013,10,17,11,14,10.50
2013,10,17,11,15,10.50
2013,10,17,11,16,10.50
2013,10,17,11,17,10.50
2013,10,17,11,18,10.50
2013,10,17,11,19,10.60
2013,10,17,11,20,10.60
2013,10,17,11,21,10.60
2013,10,17,11,22,10.70
2013,10,17,11,23,10.70
2013,10,17,11,24,10.80
2013,10,17,11,25,10.80
2013,10,17,11,26,10.90
2013,10,17,11,27,10.90
2013,10,17,11,28,11.00
2013,10,17,11,29,11.00
2013,10,17,11,30,11.10
2013,10,17,11,31,11.10
2013,10,17,11,32,11.10
2013,10,17,11,33,11.10
2013,10,17,11,34,11.10
2013,10,17,11,35,11.10
2013,10,17,11,36,11.20
2013,10,17,11,37,11.10
2013,10,17,11,38,11.20
2013,10,17,11,39,11.10
2013,10,17,11,40,11.10
2013,10,17,11,41,11.10
2013,10,17,11,42,11.10
2013,10,17,11,43,11.20
2013,10,17,11,44,11.20
2013,10,17,11,45,11.30
2013,10,17,11,46,11.30
2013,10,17,11,47,11.30
2013,10,17,11,48,11.40
2013,10,17,11,49,11.40
2013,10,17,11,50,11.40
2013,10,17,11,51,11.50
2013,10,17,11,52,11.50
2013,10,17,11,53,11.50
2013,10,17,11,54,11.60
2013,10,17,11,55,11.60
2013,10,17,11,56,11.60
2013,10,17,11,57,11.60
2013,10,17,11,58,11.60
2013,10,17,11,59,11.60
2013,10,17,12,00,11.70
2013,10,17,12,01,11.70
2013,10,17,12,02,11.70
2013,10,17,12,03,11.70
2013,10,17,12,04,11.70
2013,10,17,12,05,11.70
2013,10,17,12,06,11.80
2013,10,17,12,07,11.80
2013,10,17,12,08,11.80
2013,10,17,12,09,11.90
2013,10,17,12,10,11.90
2013,10,17,12,11,11.90
2013,10,17,12,12,12.00
2013,10,17,12,13,12.00
2013,10,17,12,14,12.10
2013,10,17,12,15,12.10
2013,10,17,12,16,12.10
2013,10,17,12,17,12.10
2013,10,17,12,18,12.10
2013,10,17,12,19,12.10
2013,10,17,12,20,12.10
2013,10,17,12,21,12.10
2013,10,17,12,22,12.10
2013,10,17,12,23,12.10
2013,10,17,12,24,12.20
2013,10,17,12,25,12.20
2013,10,17,12,26,12.20
2013,10,17,12,27,12.20
2013,10,17,12,28,12.10
2013,10,17,12,29,12.10
2013,10,17,12,30,12.20
2013,10,17,12,31,12.20
2013,10,17,12,32,12.20
2013,10,17,12,33,12.20
2013,10,17,12,34,12.30
2013,10,17,12,35,12.30
2013,10,17,12,36,12.30
2013,10,17,12,37,12.30
2013,10,17,12,38,12.30
2013,10,17,12,39,12.30
2013,10,17,12,40,12.30
2013,10,17,12,41,12.30
2013,10,17,12,42,12.30
2013,10,17,12,43,12.30
2013,10,17,12,44,12.30
2013,10,17,12,45,12.30
2013,10,17,12,46,12.30
2013,10,17,12,47,12.30
2013,10,17,12,48,12.30
2013,10,17,12,49,12.20
2013,10,17,12,50,12.20
2013,10,17,12,51,12.20
2013,10,17,12,52,12.20
2013,10,17,12,53,12.20
2013,10,17,12,54,12.20
2013,10,17,12,55,12.20
2013,10,17,12,56,12.20
2013,10,17,12,57,12.20
2013,10,17,12,58,12.20
2013,10,17,12,59,12.20
2013,10,17,13,00,12.20
2013,10,17,13,01,12.30
2013,10,17,13,02,12.30
2013,10,17,13,03,12.30
2013,10,17,13,04,12.40
2013,10,17,13,05,12.50
2013,10,17,13,06,12.50
2013,10,17,13,07,12.60
2013,10,17,13,08,12.70
2013,10,17,13,09,12.80
2013,10,17,13,10,12.90
2013,10,17,13,11,12.90
2013,10,17,13,12,13.00
2013,10,17,13,13,13.10
2013,10,17,13,14,13.10
2013,10,17,13,15,13.20
2013,10,17,13,16,13.20
2013,10,17,13,17,13.30
2013,10,17,13,18,13.30
2013,10,17,13,19,13.30
2013,10,17,13,20,13.30
2013,10,17,13,21,13.40
2013,10,17,13,22,13.40
2013,10,17,13,23,13.40
2013,10,17,13,24,13.40
2013,10,17,13,25,13.40
2013,10,17,13,26,13.40
2013,10,17,13,27,13.40
2013,10,17,13,28,13.40
2013,10,17,13,29,13.50
2013,10,17,13,30,13.50
2013,10,17,13,31,13.60
2013,10,17,13,32,13.60
2013,10,17,13,33,13.60
2013,10,17,13,34,13.60
2013,10,17,13,35,13.60
2013,10,17,13,36,13.60
2013,10,17,13,37,13.80
2013,10,17,13,38,14.00
2013,10,17,13,39,14.10
2013,10,17,13,40,14.20
2013,10,17,13,41,14.30
2013,10,17,13,42,14.40
2013,10,17,13,43,14.50
2013,10,17,13,44,14.60
2013,10,17,13,45,14.60
2013,10,17,13,46,14.70
2013,10,17,13,47,14.70
2013,10,17,13,48,14.70
2013,10,17,13,49,14.60
2013,10,17,13,50,14.60
2013,10,17,13,51,14.50
2013,10,17,13,52,14.40
2013,10,17,13,53,14.30
2013,10,17,13,54,14.20
2013,10,17,13,55,14.10
2013,10,17,13,56,13.90
2013,10,17,13,57,13.80
2013,10,17,13,58,13.70
2013,10,17,13,59,13.60
2013,10,17,14,00,13.60
2013,10,17,14,01,13.50
2013,10,17,14,02,13.50
2013,10,17,14,03,13.60
2013,10,17,14,04,13.60
2013,10,17,14,05,13.60
2013,10,17,14,06,13.60
2013,10,17,14,07,13.60
2013,10,17,14,08,13.60
2013,10,17,14,09,13.60
2013,10,17,14,10,13.60
2013,10,17,14,11,13.60
2013,10,17,14,12,13.60
2013,10,17,14,13,13.70
2013,10,17,14,14,13.70
2013,10,17,14,15,13.80
2013,10,17,14,16,13.80
2013,10,17,14,17,13.80
2013,10,17,14,18,13.80
2013,10,17,14,19,13.90
2013,10,17,14,20,14.00
2013,10,17,14,21,14.00
2013,10,17,14,22,13.90
2013,10,17,14,23,13.90
2013,10,17,14,24,13.90
2013,10,17,14,25,14.00
2013,10,17,14,26,14.00
2013,10,17,14,27,14.00
2013,10,17,14,28,14.00
2013,10,17,14,29,13.90
2013,10,17,14,30,13.90
2013,10,17,14,31,13.80
2013,10,17,14,32,13.70
2013,10,17,14,33,13.70
2013,10,17,14,34,13.70
2013,10,17,14,35,13.70
2013,10,17,14,36,13.60
2013,10,17,14,37,13.70
2013,10,17,14,38,13.70
2013,10,17,14,39,13.60
2013,10,17,14,40,13.70
2013,10,17,14,41,13.70
2013,10,17,14,42,13.70
2013,10,17,14,43,13.80
2013,10,17,14,44,13.80
2013,10,17,14,45,13.80
2013,10,17,14,46,13.80
2013,10,17,14,47,13.80
2013,10,17,14,48,13.90
2013,10,17,14,49,13.90
2013,10,17,14,50,14.00
2013,10,17,14,51,14.00
2013,10,17,14,52,14.10
2013,10,17,14,53,14.10
2013,10,17,14,54,14.10
2013,10,17,14,55,14.20
2013,10,17,14,56,14.20
2013,10,17,14,57,14.30
2013,10,17,14,58,14.30
2013,10,17,14,59,14.30
2013,10,17,15,00,14.30
2013,10,17,15,01,14.30
2013,10,17,15,02,14.30
2013,10,17,15,03,14.20
2013,10,17,15,04,14.20
2013,10,17,15,05,14.10
2013,10,17,15,06,14.10
2013,10,17,15,07,14.10
2013,10,17,15,08,14.00
2013,10,17,15,09,14.00
2013,10,17,15,10,14.00
2013,10,17,15,11,13.90
2013,10,17,15,12,14.00
2013,10,17,15,13,14.00
2013,10,17,15,14,14.00
2013,10,17,15,15,14.00
2013,10,17,15,16,13.90
2013,10,17,15,17,13.90
2013,10,17,15,18,13.90
2013,10,17,15,19,13.90
2013,10,17,15,20,13.90
2013,10,17,15,21,13.90
2013,10,17,15,22,13.90
2013,10,17,15,23,13.90
2013,10,17,15,24,13.80
2013,10,17,15,25,13.80
2013,10,17,15,26,13.90
2013,10,17,15,27,13.90
2013,10,17,15,28,13.90
2013,10,17,15,29,13.90
2013,10,17,15,30,13.90
2013,10,17,15,31,14.00
2013,10,17,15,32,14.00
2013,10,17,15,33,13.90
2013,10,17,15,34,13.80
2013,10,17,15,35,13.80
2013,10,17,15,36,13.80
2013,10,17,15,37,13.80
2013,10,17,15,38,13.80
2013,10,17,15,39,13.80
2013,10,17,15,40,13.80
2013,10,17,15,41,13.80
2013,10,17,15,42,13.80
2013,10,17,15,43,13.80
2013,10,17,15,44,13.80
2013,10,17,15,45,13.80
2013,10,17,15,46,13.80
2013,10,17,15,47,13.80
2013,10,17,15,48,13.80
2013,10,17,15,49,13.80
2013,10,17,15,50,13.90
2013,10,17,15,51,13.90
2013,10,17,15,52,13.90
2013,10,17,15,53,14.00
2013,10,17,15,54,14.00
2013,10,17,15,55,14.10
2013,10,17,15,56,14.10
2013,10,17,15,57,14.10
2013,10,17,15,58,14.20
2013,10,17,15,59,14.20
2013,10,17,16,00,14.10
2013,10,17,16,01,14.20
2013,10,17,16,02,14.20
2013,10,17,16,03,14.20
2013,10,17,16,04,14.20
2013,10,17,16,05,14.30
2013,10,17,16,06,14.30
2013,10,17,16,07,14.20
2013,10,17,16,08,14.20
2013,10,17,16,09,14.20
2013,10,17,16,10,14.20
2013,10,17,16,11,14.20
2013,10,17,16,12,14.10
2013,10,17,16,13,14.10
2013,10,17,16,14,14.10
2013,10,17,16,15,14.10
2013,10,17,16,16,14.10
2013,10,17,16,17,14.10
2013,10,17,16,18,14.10
2013,10,17,16,19,14.20
2013,10,17,16,20,14.20
2013,10,17,16,21,14.30
2013,10,17,16,22,14.30
2013,10,17,16,23,14.30
2013,10,17,16,24,14.40
2013,10,17,16,25,14.40
2013,10,17,16,26,14.40
2013,10,17,16,27,14.30
2013,10,17,16,28,14.30
2013,10,17,16,29,14.30
2013,10,17,16,30,14.30
2013,10,17,16,31,14.20
2013,10,17,16,32,14.20
2013,10,17,16,33,14.20
2013,10,17,16,34,14.20
2013,10,17,16,35,14.20
2013,10,17,16,36,14.20
2013,10,17,16,37,14.20
2013,10,17,16,38,14.20
2013,10,17,16,39,14.10
2013,10,17,16,40,14.10
2013,10,17,16,41,14.00
2013,10,17,16,42,14.00
2013,10,17,16,43,13.90
2013,10,17,16,44,13.90
2013,10,17,16,45,13.90
2013,10,17,16,46,14.00
2013,10,17,16,47,14.00
2013,10,17,16,48,14.10
2013,10,17,16,49,14.10
2013,10,17,16,50,14.10
2013,10,17,16,51,14.10
2013,10,17,16,52,14.10
2013,10,17,16,53,14.20
2013,10,17,16,54,14.10
2013,10,17,16,55,14.10
2013,10,17,16,56,14.10
2013,10,17,16,57,14.10
2013,10,17,16,58,14.10
2013,10,17,16,59,14.10
2013,10,17,17,00,14.10
2013,10,17,17,01,14.10
2013,10,17,17,02,14.10
2013,10,17,17,03,14.10
2013,10,17,17,04,14.20
2013,10,17,17,05,14.20
2013,10,17,17,06,14.20
2013,10,17,17,07,14.20
2013,10,17,17,08,14.20
2013,10,17,17,09,14.20
2013,10,17,17,10,14.20
2013,10,17,17,11,14.20
2013,10,17,17,12,14.20
2013,10,17,17,13,14.20
2013,10,17,17,14,14.30
2013,10,17,17,15,14.30
2013,10,17,17,16,14.30
2013,10,17,17,17,14.30
2013,10,17,17,18,14.30
2013,10,17,17,19,14.30
2013,10,17,17,20,14.30
2013,10,17,17,21,14.30
2013,10,17,17,22,14.30
2013,10,17,17,23,14.30
2013,10,17,17,24,14.30
2013,10,17,17,25,14.30
2013,10,17,17,26,14.30
2013,10,17,17,27,14.30
2013,10,17,17,28,14.30
2013,10,17,17,29,14.30
2013,10,17,17,30,14.30
2013,10,17,17,31,14.30
2013,10,17,17,32,14.20
2013,10,17,17,33,14.20
2013,10,17,17,34,14.20
2013,10,17,17,35,14.20
2013,10,17,17,36,14.20
2013,10,17,17,37,14.10
2013,10,17,17,38,14.10
2013,10,17,17,39,14.00
2013,10,17,17,40,14.00
2013,10,17,17,41,14.10
2013,10,17,17,42,14.00
2013,10,17,17,43,14.10
2013,10,17,17,44,14.10
2013,10,17,17,45,14.10
2013,10,17,17,46,14.10
2013,10,17,17,47,14.10